Powrót do katalogu

THORAD AGENA D DEB

AktywnySSO
NORAD 4920·DEBRIS·🇺🇸 United States

Wystrzelony Apr 8, 1970 z Vandenberg Space Force Base

Loading…

Następne Przeloty

TLE

Source: Space-Track
1 04920U 70025FS  26228.17049269  .00000270  00000-0  47441-3 0  9999
2 04920  99.4298 119.3380 0088360 217.1628 297.3319 13.50561850761669

Śledź THORAD AGENA D DEB w czasie rzeczywistym z AllMySat

Download on the App Store